Location: Newark
(48.4472°N, 1.4892°E)
Time: 07:21:09
(UTC+00:00)

Transit 4A - Pass Details

Date: 25 November 2019
Orbit: 870 x 975 km, 66.8° (Epoch: 08 December)

Event Time Altitude Azimuth Distance (km) Brightness Sun altitude
Exits shadow 04:31:39 38° 347° (NNW) 1,328 8.5 -26.7°
Maximum altitude 04:33:48 61° 50° (NE) 997 8.2 -26.3°
Drops below altitude 10° 04:39:32 10° 130° (SE) 2,515 10.8 -25.4°
Sets 04:42:02 0° 134° (SE) 3,447 11.6 -25.0°
